Tracking 28790 objects as of 19-Apr-2024
HD Live streaming from Space Station
objects crossing your sky now

THOR ABLESTAR DEB

Track THOR ABLESTAR DEB now!
10-day predictions


NORAD ID: 420
Int'l Code: 1961-015EV
Perigee: 738.6 km
Apogee: 852.8 km
Inclination: 66.8 °
Period: 100.6 minutes
Semi major axis: 7166 km
RCS: 0.0394 m2 (small)
Launch date: June 29, 1961
Source: United States (US)
Launch site: AIR FORCE EASTERN TEST RANGE (AFETR)

Note: This is SATELLITE DEBRIS
Your satellite tracking list
Your tracking list is empty




NASA's NSSDC Master Catalog

Two Line Element Set (TLE):
1 00420U 61015EV  24109.59806774  .00002455  00000-0  93157-3 0  9995
2 00420  66.8152 182.3902 0079689  79.8284 281.1792 14.30937671240465
Source of the keplerian elements: AFSPC